Погода в Подольске

Россия / Московская область     55°25′52″N   37°32′41″E
темп.,
°C
ветер,
м/с
пор.,
м/с
влажн.,
%
обл.,
%
осадки,
мм/ч
давл.,
гПа
погр.,
м
18 мая, вт
вт1800:00+17вюв412882 0.0 1009258
03:00+16юв413875 0.0 1009288
06:00+16юв412792 0.0 1008257
09:00+21юв6106139 0.0 1008424
12:00+24юв713505 0.0 1009902
15:00+25вюв712555 0.0 10081135
18:00+24вюв614595 0.0 1007731
21:00+20вюв718655 0.0 1006653
19 мая, ср
ср1900:00+18вюв515780 0.0 1006431
03:00+16вюв513784 0.0 1006366
06:00+15юв6148387 0.1 1006514
09:00+19ююв697232 0.1 1008827
12:00+21юв68635 0.3 10081456
15:00+22юв696571 1.1 10081330
18:00+21юв497479 0.6 1007938
21:00+17юв2586100 0.8 100794
20 мая, чт
чт2000:00+16вюв3690100 0.2 1006129
03:00+15вюв51196100 1.3 1006399
06:00+14юв5129088 0.8 1005580
09:00+16юв7107633 0.8 10051076
12:00+17юв7126999 0.3 10051554
15:00+15ююв81379100 1.6 10051248
18:00+14ю8138247 0.4 10051013
21:00+12ююз7138445 0.4 1006920
21 мая, пт
пт2100:00+11ююз61080100 0.0 1008738
03:00+11ююз488495 0.0 1008493
06:00+11ююз358996 0.0 1009362
09:00+11зсз4692100 0.3 1011538
12:00+10сз4891100 0.4 1013554
15:00+14сз477420 0.5 1014918
18:00+17зсз35567 0.1 10141377
21:00+13зюз3470100 0.1 101677
22 мая, сб
сб2200:00+11з227384 0.0 101733
03:00+10зюз2272100 0.0 101834
06:00+11зюз1174100 0.0 101943
09:00+16юв015972 0.0 1019393
12:00+18юв3353100 0.0 10191249
15:00+18юв4459100 0.0 10181154
18:00+17юв3468100 0.0 1019784
21:00+12вюв22870 0.1 101846